Regional Weather Roundup
Issued by NWS

Home | Current Version | Previous Version | Text Only | Print | Product List | Glossary Off
Versions: 1 2 3 4 5 6 7 8 9 10 11 12 13 14 15 16 17 18 19 20 21 22 23 24 25 26 27 28 29 30 31 32 33 34 35 36 37 38 39 40 41 42 43 44 45 46 47 48 49 50

000
ASUS45 KSLC 230710
RWRUT

UTAH REGIONAL WEATHER ROUNDUP
NATIONAL WEATHER SERVICE SALT LAKE CITY UT
100 AM MDT WED MAY 23 2018

UTZ001>011-023>025-230800-

NORTHERN UTAH

CITY           SKY/WX    TMP DP  RH WIND       PRES   REMARKS
BRIGHAM CITY   CLOUDY    59  42  54 S7        29.95R
HILL AFB       CLOUDY    55  42  62 E9        29.96S
LOGAN          LGT RAIN  53  50  89 NE9       29.96F
OGDEN          CLOUDY    56  42  59 SE9       29.94F
SALT LAKE CITY MOCLDY    59  47  64 SE9       29.93F
TOOELE VALLEY  MOCLDY    54  45  71 S14       29.94F
WENDOVER       PTCLDY    55  46  71 NE5       29.92F
HEBER CITY       N/A     43  41  93 CALM      30.00F
WEST JORDAN    MOCLDY    53  47  79 SE5       29.96S

$$

UTZ011>015-024>027-230800-

CENTRAL/NORTHEAST UTAH

CITY           SKY/WX    TMP DP  RH WIND       PRES   REMARKS
PROVO AIRPORT  PTCLDY    56  44  64 S3        29.97S
MOAB/CANYONLAN CLEAR     56  42  59 SW5       29.90R
DELTA          PTCLDY    48  41  76 SE5       29.96F
PRICE          PTCLDY    55  35  47 NW3       30.00S
ROOSEVELT      MOCLDY    50  39  66 W12       30.02S
VERNAL         PTCLDY    50  41  71 CALM      30.00F

$$

UTZ013>016-019>022-027-230800-

SOUTHERN UTAH

CITY           SKY/WX    TMP DP  RH WIND       PRES   REMARKS
BRYCE CANYON   MOCLDY    42  39  89 CALM      30.10S
CEDAR CITY     PTCLDY    53  37  54 SE7       29.98F
MILFORD        PTCLDY    47  45  93 SW6       29.97S
ST GEORGE      PTSUNNY   67  41  38 SE10      29.87S
HANKSVILLE     MOCLDY    59  30  33 N5        29.95S
BLANDING         N/A     47  27  45 NE8       30.04S

$$

REGIONAL REPORTS     COLORADO/ARIZONA

CITY           SKY/WX    TMP DP  RH WIND       PRES   REMARKS
CRAIG, CO      CLEAR     43  40  89 CALM      30.05F
GRAND JUNCTION CLEAR     53  43  68 E10       29.95F
RIFLE, CO      CLEAR     46  40  79 SE3       30.02F
MONTROSE, CO   CLEAR     46  40  79 S6        30.02F
CORTEZ, CO     PTCLDY    46  29  51 E7        29.99S
COLORADO CITY    N/A     45  41  87 SE5       30.00S
PAGE, AZ       CLEAR     61  33  35 SE5       29.94S
GRAND CANYON   CLEAR     36  24  62 NE3       30.08S
KINGMAN, AZ    CLEAR     61  29  29 SE12      29.90S
FLAGSTAFF, AZ  CLEAR     41  17  38 CALM      30.10S

$$

REGIONAL REPORTS    NEVADA/IDAHO/WYOMING

CITY           SKY/WX    TMP DP  RH WIND       PRES   REMARKS
LAS VEGAS, NV  PTCLDY    76  34  21 SW6       29.79S
ELY, NY        CLOUDY    48  40  73 SW6       30.01S
ELKO, NV       PTCLDY    49  44  83 CALM      29.94F
POCATELLO, ID  CLOUDY    55  52  89 N6        29.93S
BURLEY, ID     MOCLDY    54  49  83 CALM      29.90S
FORT BRIDGER,  RAIN      45  44  95 W15       30.10F
EVANSTON, WY   CLOUDY    45  41  86 CALM      30.06F
ROCK SPRINGS,  MOCLDY    44  42  93 SE12      30.06F
KEMMERER, WY   CLOUDY    43  37  81 SW5       30.09F

$$



USA.gov is the U.S. government's official web portal to all federal, state and local government web resources and services.